[[{"header":{"parameterUnit":"m.s-1","parameterCategory":1,"la1":30.2991,"la2":30.254,"lo1":-89.0895,"lo2":-89.0444,"dy":0.0017,"dx":0.0017,"nx":28,"ny":28,"refTime":"2026-02-14T03:00:00:Z","depth":0,"parameterNumber":2,"parameterNumberName":"U-component_of_WINDS"},"data":[0,0,0,0,0,0,0,0,0,0,0,0,0,0,0,0,0,0,0,0,0,0,0,0,0,0,0,0,0,0,0,0,0,0,0,0,0,0,0,0,0,0,0,0,0,0,0,0,0,0,0,0,0,0,0,0,0,0,3.5955,3.5955,0,3.6018,3.6018,3.6019,3.6025,3.6025,3.6024,3.6023,3.6085,3.6087,3.6089,0,0,0,0,0,0,0,0,0,0,0,0,0,3.584,3.5842,3.5955,3.5956,3.5956,3.6018,3.6018,3.6019,3.6025,3.6024,3.6024,3.6023,3.6084,3.6087,3.609,0,0,0,0,0,0,0,0,0,0,0,0,0,3.5895,3.5842,3.5955,3.5967,3.5968,3.6017,3.6018,3.602,3.6025,3.6024,3.6023,3.6023,3.6083,3.6087,3.609,3.613,0,0,3.61,3.6102,0,0,0,0,0,0,0,0,3.5892,3.5899,3.5964,3.5966,3.5968,3.6013,3.6001,3.6057,3.6026,3.6004,3.6023,3.6022,3.6062,3.6067,3.6081,3.6133,3.6136,3.6101,3.6103,3.6104,3.6105,0,0,0,0,0,0,0,3.5888,3.5896,3.598,3.5965,3.5968,3.5969,3.5976,3.6011,3.6037,3.6006,3.6006,3.6014,3.6062,3.6077,3.6082,3.6137,3.6101,3.6104,3.6106,3.6107,3.6229,3.623,0,0,0,0,0,0,3.5882,3.5893,3.5978,3.5981,3.5927,3.5972,3.5979,3.5999,3.6037,3.6042,3.6014,3.6014,3.6072,3.6078,3.6084,3.6136,3.6104,3.6107,3.6109,3.6228,3.6229,3.6231,0,0,0,0,0,0,3.5879,3.5889,3.5975,3.5938,3.5949,3.5975,3.5997,3.6001,3.6016,3.6044,3.6048,3.6025,3.6071,3.6079,3.612,3.6138,3.6109,3.6112,3.6226,3.6228,3.623,3.6238,0,0,0,0,0,0,3.5876,3.5888,3.5904,3.5938,3.5951,3.6009,3.5998,3.6003,3.6022,3.6022,3.6055,3.6059,3.6071,3.6115,3.6123,3.6142,3.6115,3.6225,3.6227,3.6229,3.6236,3.624,3.6243,0,0,0,0,0,3.5872,3.5902,3.5904,3.5915,3.597,3.601,3.6018,3.6032,3.6023,3.6039,3.6058,3.6058,3.6135,3.6119,3.6128,3.6148,3.6224,3.6227,3.6229,3.6235,3.6239,3.6243,0,0,0,0,0,0,3.5868,3.5907,3.591,3.5952,3.5978,3.6011,3.6032,3.6036,3.6064,3.6062,3.6078,3.6085,3.6126,3.6141,3.6122,3.6191,3.6178,3.6183,3.6179,3.6184,3.6187,3.6182,3.6117,0,0,0,0,0,3.5872,3.5902,3.5934,3.5968,3.5982,3.6005,3.6022,3.6032,3.6059,3.6069,3.6091,3.6117,3.6147,3.6166,3.6195,3.6239,3.6247,3.6258,3.6261,3.6264,3.6268,3.6294,3.63,3.624,3.624,3.624,0,0,3.5881,3.5906,3.5923,3.5968,3.599,3.602,3.6014,3.6045,3.6069,3.6074,3.6114,3.6131,3.6161,3.6204,3.6224,3.6218,3.6287,3.6267,3.6269,3.6272,3.6298,3.6303,3.6308,3.6241,3.6241,3.6241,0,0,3.5912,3.5934,3.5966,3.5988,3.6021,3.6037,3.6045,3.6078,3.609,3.6131,3.6137,3.6164,3.6215,3.6238,3.6255,3.63,3.6302,3.6309,3.6326,3.6352,3.6357,3.6361,3.6378,3.6384,3.6312,3.6312,3.6312,0,3.5918,3.5965,3.5982,3.6015,3.6035,3.6044,3.6077,3.6097,3.6138,3.6152,3.6145,3.6212,3.6232,3.6282,3.6293,3.6307,3.6317,3.6304,3.6355,3.6359,3.6363,3.638,3.6386,3.6313,3.6313,3.6313,3.6313,0,3.5972,3.6005,3.6027,3.6068,3.6091,3.6123,3.6145,3.6167,3.6175,3.6191,3.6234,3.626,3.6296,3.6308,3.6315,3.6359,3.6355,3.6351,3.6339,3.637,3.6385,3.6392,3.6314,3.6314,3.6314,3.6313,0,0,3.6,3.6053,3.6061,3.6081,3.6119,3.6145,3.6179,3.6215,3.6234,3.6262,3.6292,3.6337,3.6335,3.6356,3.6366,3.6388,3.6424,3.6382,3.6383,3.639,3.6476,3.6479,3.6486,3.6426,3.6427,3.6428,3.6474,0,3.6037,3.6099,3.6116,3.6168,3.6199,3.621,3.624,3.6267,3.6284,3.6313,3.6332,3.6364,3.6358,3.6371,3.6394,3.6415,3.6441,3.6412,3.6454,3.6455,3.6446,3.6494,3.6496,3.6538,3.648,3.6481,3.6482,0,3.6087,3.6119,3.6175,3.6212,3.6226,3.6253,3.6289,3.6317,3.6349,3.636,3.6385,3.6394,3.6431,3.6417,3.6469,3.6448,3.6467,3.648,3.6482,3.6486,3.647,3.65,3.6552,3.6558,3.6492,3.6491,3.649,0,3.6104,3.616,3.6202,3.6218,3.6263,3.6282,3.6301,3.6332,3.6354,3.6386,3.6401,3.6436,3.6455,3.6483,3.6501,3.6489,3.6552,3.654,3.6563,3.6563,3.6575,3.6574,3.6631,3.6587,3.6587,3.6587,3.6586,0,3.6143,3.6177,3.621,3.6236,3.6275,3.6295,3.6333,3.6353,3.6381,3.6411,3.6422,3.6449,3.6472,3.6504,3.6519,3.6561,3.6569,3.6579,3.6583,3.6579,3.6577,3.6591,3.6589,3.6588,3.6588,3.6588,3.6587,0,3.6167,3.6191,3.6237,3.6277,3.6288,3.6315,3.6349,3.6374,3.6393,3.6431,3.6441,3.647,3.6508,3.653,3.6577,3.6587,3.6634,3.6636,3.6623,3.6625,3.6648,3.6646,3.6715,3.6726,3.6674,3.6675,3.6675,0,3.6191,3.6218,3.6261,3.6283,3.6303,3.6337,3.636,3.6382,3.6405,3.6446,3.6467,3.6506,3.6538,3.6598,3.6624,3.666,3.6664,3.6686,3.6669,3.6665,3.6665,3.6664,3.6667,3.6688,3.6689,3.6689,3.6689,0,3.623,3.6242,3.6275,3.6314,3.6341,3.6372,3.6403,3.642,3.6447,3.6473,3.6513,3.6538,3.6588,3.6627,3.6667,3.6687,3.6693,3.6695,3.6702,3.6698,3.669,3.6696,3.6632,3.6693,3.6692,3.6692,3.6692,3.6692,3.6256,3.6281,3.6316,3.6354,3.638,3.6409,3.6436,3.646,3.6493,3.6536,3.6547,3.6589,3.6623,3.6678,3.6699,3.6733,3.6729,3.6739,3.6742,3.6745,3.6746,3.6685,3.674,3.674,3.674,3.674,3.674,0,3.6297,3.6321,3.6355,3.6399,3.6429,3.6435,3.647,3.6495,3.6532,3.6563,3.6596,3.6643,3.6682,3.6711,3.6751,3.6773,3.6777,3.6783,3.6781,3.6786,3.6747,3.6737,3.6779,3.6779,3.6779,3.6779,3.6779,3.6779,3.6321,3.6365,3.6381,3.6439,3.6463,3.6505,3.6525,3.6553,3.6579,3.6631,3.6664,3.6683,3.6715,3.6758,3.6794,3.6802,3.6817,3.6822,3.6831,3.6793,3.6789,3.6785,3.6775,3.6825,3.6825,3.6868,3.6868,3.6869]},{"header":{"parameterUnit":"m.s-1","parameterCategory":1,"la1":30.2991,"la2":30.254,"lo1":-89.0895,"lo2":-89.0444,"dy":0.0017,"dx":0.0017,"nx":28,"ny":28,"refTime":"2026-02-14T03:00:00:Z","depth":0,"parameterNumber":3,"parameterNumberName":"V-component_of_WINDS"},"data":[0,0,0,0,0,0,0,0,0,0,0,0,0,0,0,0,0,0,0,0,0,0,0,0,0,0,0,0,0,0,0,0,0,0,0,0,0,0,0,0,0,0,0,0,0,0,0,0,0,0,0,0,0,0,0,0,0,0,-4.8062,-4.8062,0,-4.8053,-4.8053,-4.8053,-4.8056,-4.8056,-4.8057,-4.8057,-4.8045,-4.8044,-4.8044,0,0,0,0,0,0,0,0,0,0,0,0,0,-4.808,-4.808,-4.8062,-4.8062,-4.8062,-4.8053,-4.8053,-4.8053,-4.8056,-4.8056,-4.8057,-4.8057,-4.8045,-4.8044,-4.8044,0,0,0,0,0,0,0,0,0,0,0,0,0,-4.8072,-4.808,-4.8062,-4.8062,-4.8062,-4.8053,-4.8053,-4.8053,-4.8056,-4.8056,-4.8057,-4.8057,-4.8045,-4.8044,-4.8044,-4.8032,0,0,-4.8041,-4.8041,0,0,0,0,0,0,0,0,-4.8072,-4.8071,-4.8062,-4.8062,-4.8062,-4.8056,-4.8055,-4.8046,-4.8056,-4.8058,-4.8057,-4.8057,-4.8048,-4.8047,-4.8045,-4.8032,-4.8031,-4.8041,-4.8041,-4.804,-4.804,0,0,0,0,0,0,0,-4.8073,-4.8071,-4.8058,-4.8062,-4.8062,-4.8062,-4.8062,-4.8053,-4.8051,-4.8058,-4.8058,-4.8057,-4.8048,-4.8045,-4.8044,-4.8031,-4.8041,-4.804,-4.804,-4.804,-4.8008,-4.8008,0,0,0,0,0,0,-4.8074,-4.8072,-4.8059,-4.8058,-4.8068,-4.8062,-4.8061,-4.8058,-4.8052,-4.8051,-4.8057,-4.8058,-4.8046,-4.8045,-4.8044,-4.803,-4.804,-4.804,-4.8039,-4.8008,-4.8008,-4.8008,0,0,0,0,0,0,-4.8074,-4.8073,-4.8059,-4.8065,-4.8063,-4.8061,-4.8057,-4.8057,-4.8055,-4.8051,-4.805,-4.8055,-4.8047,-4.8045,-4.8035,-4.8029,-4.8039,-4.8039,-4.8009,-4.8008,-4.8008,-4.8002,0,0,0,0,0,0,-4.8075,-4.8073,-4.8069,-4.8065,-4.8063,-4.8051,-4.8057,-4.8057,-4.8053,-4.8054,-4.8048,-4.8048,-4.8047,-4.8036,-4.8034,-4.8029,-4.8038,-4.8009,-4.8009,-4.8008,-4.8002,-4.8001,-4.8,0,0,0,0,0,-4.8075,-4.8067,-4.8069,-4.8067,-4.8058,-4.8051,-4.8049,-4.8049,-4.8053,-4.8049,-4.8046,-4.8048,-4.8031,-4.8035,-4.8033,-4.8027,-4.801,-4.8009,-4.8008,-4.8003,-4.8001,-4.8,0,0,0,0,0,0,-4.8069,-4.8066,-4.8068,-4.8058,-4.8055,-4.8051,-4.8046,-4.8048,-4.8042,-4.8043,-4.8042,-4.8041,-4.8031,-4.8028,-4.8033,-4.8016,-4.8021,-4.8019,-4.8018,-4.8016,-4.8015,-4.8015,-4.8037,0,0,0,0,0,-4.8067,-4.8062,-4.8059,-4.8051,-4.8049,-4.8048,-4.8045,-4.8045,-4.8041,-4.8039,-4.8036,-4.8031,-4.8025,-4.802,-4.8014,-4.8003,-4.8001,-4.7997,-4.7996,-4.7995,-4.7993,-4.7986,-4.7985,-4.8005,-4.8005,-4.8005,0,0,-4.8061,-4.8059,-4.8056,-4.805,-4.8047,-4.8041,-4.8046,-4.804,-4.8035,-4.8038,-4.8028,-4.8026,-4.8021,-4.801,-4.8005,-4.8007,-4.7988,-4.7994,-4.7993,-4.7992,-4.7985,-4.7983,-4.7982,-4.8004,-4.8004,-4.8005,0,0,-4.8048,-4.8047,-4.8039,-4.8037,-4.8033,-4.8032,-4.8031,-4.8027,-4.8026,-4.8017,-4.8019,-4.8013,-4.8002,-4.7998,-4.7994,-4.7981,-4.7982,-4.7979,-4.7972,-4.7965,-4.7963,-4.7962,-4.7956,-4.7954,-4.7978,-4.7978,-4.7978,0,-4.8042,-4.8033,-4.8035,-4.8028,-4.8025,-4.8029,-4.8021,-4.8018,-4.8012,-4.801,-4.8013,-4.7999,-4.7996,-4.7984,-4.7981,-4.7978,-4.7975,-4.7979,-4.7964,-4.7962,-4.7961,-4.7955,-4.7953,-4.7977,-4.7977,-4.7977,-4.7977,0,-4.8025,-4.802,-4.8014,-4.8009,-4.8006,-4.7998,-4.7998,-4.7994,-4.7995,-4.7994,-4.7985,-4.7981,-4.7974,-4.7972,-4.7972,-4.796,-4.7961,-4.7964,-4.7969,-4.7959,-4.7953,-4.7951,-4.7977,-4.7977,-4.7977,-4.7977,0,0,-4.8007,-4.8004,-4.8002,-4.7999,-4.7996,-4.7991,-4.7984,-4.7978,-4.7974,-4.7971,-4.7964,-4.7955,-4.7958,-4.7954,-4.7954,-4.7948,-4.7937,-4.7952,-4.7952,-4.7948,-4.7922,-4.7919,-4.7917,-4.7938,-4.7938,-4.7938,-4.7922,0,-4.7993,-4.7981,-4.7983,-4.7971,-4.7965,-4.7969,-4.7963,-4.7959,-4.7958,-4.7953,-4.7951,-4.7945,-4.795,-4.7947,-4.7942,-4.794,-4.7932,-4.7941,-4.7931,-4.793,-4.7931,-4.7914,-4.7911,-4.7897,-4.792,-4.792,-4.792,0,-4.7974,-4.7971,-4.7959,-4.7956,-4.7954,-4.7948,-4.7943,-4.7938,-4.7935,-4.7934,-4.7931,-4.7932,-4.7924,-4.793,-4.7919,-4.7925,-4.7921,-4.792,-4.7919,-4.7917,-4.7924,-4.7911,-4.7892,-4.789,-4.7917,-4.7917,-4.7917,0,-4.7961,-4.7953,-4.7945,-4.7943,-4.794,-4.7936,-4.7935,-4.7931,-4.7928,-4.7923,-4.7921,-4.7915,-4.7912,-4.7907,-4.7906,-4.7911,-4.7895,-4.7901,-4.7893,-4.7893,-4.7888,-4.7888,-4.7868,-4.7888,-4.7888,-4.7888,-4.7888,0,-4.7944,-4.7936,-4.7939,-4.7933,-4.7925,-4.7927,-4.7918,-4.7917,-4.7914,-4.7908,-4.7911,-4.7905,-4.7906,-4.79,-4.7899,-4.7889,-4.7888,-4.7887,-4.7886,-4.7886,-4.7886,-4.7882,-4.7883,-4.7887,-4.7888,-4.7888,-4.7888,0,-4.7927,-4.7928,-4.7919,-4.7918,-4.7917,-4.7911,-4.7909,-4.7904,-4.7904,-4.7896,-4.7895,-4.7894,-4.7887,-4.7887,-4.7878,-4.7878,-4.7866,-4.7867,-4.7867,-4.7867,-4.7859,-4.7859,-4.7834,-4.7831,-4.7854,-4.7854,-4.7854,0,-4.7916,-4.791,-4.7908,-4.7905,-4.7903,-4.7898,-4.7895,-4.7897,-4.7893,-4.7889,-4.7884,-4.7878,-4.7872,-4.7861,-4.7859,-4.7853,-4.7853,-4.7845,-4.7852,-4.7852,-4.7852,-4.7852,-4.7851,-4.7843,-4.7843,-4.7843,-4.7843,0,-4.7895,-4.7896,-4.7892,-4.7888,-4.7884,-4.788,-4.7877,-4.7874,-4.7876,-4.7872,-4.7865,-4.7861,-4.7854,-4.7847,-4.7841,-4.7838,-4.784,-4.7841,-4.7838,-4.7837,-4.7837,-4.7836,-4.7862,-4.7841,-4.7841,-4.7841,-4.7841,-4.7841,-4.7879,-4.7874,-4.7872,-4.7867,-4.7866,-4.7863,-4.7858,-4.7858,-4.7853,-4.7847,-4.7848,-4.7841,-4.7838,-4.783,-4.7827,-4.7821,-4.7823,-4.782,-4.7819,-4.7818,-4.7817,-4.7839,-4.782,-4.782,-4.782,-4.782,-4.782,0,-4.7858,-4.7857,-4.7853,-4.7849,-4.7845,-4.7849,-4.7846,-4.7842,-4.7835,-4.7833,-4.7828,-4.782,-4.7814,-4.7812,-4.7806,-4.7801,-4.7802,-4.7799,-4.7799,-4.7798,-4.7815,-4.7817,-4.7799,-4.7799,-4.7799,-4.7799,-4.7799,-4.7799,-4.7846,-4.7837,-4.7839,-4.7829,-4.7828,-4.7822,-4.782,-4.7817,-4.7815,-4.7806,-4.7802,-4.7801,-4.7799,-4.7792,-4.7787,-4.7786,-4.7783,-4.778,-4.778,-4.7795,-4.7797,-4.7799,-4.7801,-4.778,-4.778,-4.7763,-4.7763,-4.7763]}]]